20050716,000028,1481534,34.738123,-121.580840,14.643,33.525,0.585,0.687
20050716,000058,1481563,34.738456,-121.581183,14.656,33.517,0.563,0.650
20050716,000129,1481595,34.738778,-121.581528,14.663,33.518,0.574,0.673
20050716,000158,1481624,34.739065,-121.581861,14.663,33.520,0.569,0.664
20050716,000228,1481654,34.739478,-121.582303,14.659,33.528,0.574,0.670
20050716,000259,1481685,34.740028,-121.582893,14.657,33.518,0.574,0.671
20050716,000328,1481714,34.740643,-121.583528,14.648,33.532,0.569,0.660
20050716,000359,1481745,34.741261,-121.584168,14.636,33.535,0.574,0.665
20050716,000429,1481775,34.741925,-121.584506,14.644,33.524,0.591,0.694
20050716,000458,1481804,34.742533,-121.584158,14.640,33.527,0.558,0.643
20050716,000529,1481834,34.742868,-121.583301,14.631,33.532,0.613,0.732
20050716,000558,1481864,34.743326,-121.582366,14.619,33.529,0.569,0.658
20050716,000629,1481895,34.743846,-121.581313,14.614,33.529,0.558,0.636
20050716,000658,1481923,34.744358,-121.580191,14.617,33.522,0.558,0.630
20050716,000729,1481955,34.744915,-121.579013,14.638,33.510,0.580,0.663
20050716,000758,1481984,34.745438,-121.577880,14.617,33.536,0.552,0.624
20050716,000829,1482014,34.746018,-121.576600,14.555,33.567,0.613,0.725
20050716,000858,1482044,34.746606,-121.575301,14.564,33.528,0.656,0.802
20050716,000928,1482073,34.747196,-121.573981,14.610,33.504,0.629,0.759
20050716,000958,1482103,34.747791,-121.572660,14.602,33.533,0.722,0.924
20050716,001029,1482134,34.748380,-121.571343,14.605,33.534,0.825,1.120
20050716,001059,1482164,34.748986,-121.570028,14.599,33.544,0.864,1.194
20050716,001128,1482194,34.749556,-121.568758,14.577,33.555,0.891,1.240
20050716,001158,1482223,34.750171,-121.567395,14.562,33.558,0.923,1.303
20050716,001228,1482253,34.750768,-121.566081,14.578,33.538,0.928,1.316
20050716,001258,1482284,34.751376,-121.564763,14.578,33.544,0.874,1.206
20050716,001328,1482314,34.752030,-121.563326,14.565,33.549,0.847,1.147
20050716,001359,1482344,34.752660,-121.561916,14.555,33.547,0.793,1.040
20050716,001428,1482374,34.753275,-121.560476,14.541,33.549,0.771,0.998
20050716,001458,1482403,34.753925,-121.559071,14.531,33.546,0.787,1.031
20050716,001528,1482433,34.754556,-121.557653,14.526,33.545,0.755,0.975
20050716,001559,1482465,34.755161,-121.556220,14.525,33.539,0.733,0.937
20050716,001629,1482494,34.755791,-121.554798,14.533,33.536,0.787,1.036
20050716,001659,1482525,34.756408,-121.553375,14.550,33.524,0.804,1.066
20050716,001728,1482554,34.757028,-121.551941,14.559,33.529,0.717,0.908
20050716,001758,1482583,34.757645,-121.550511,14.557,33.532,0.782,1.026
20050716,001828,1482614,34.758246,-121.549091,14.560,33.533,0.711,0.900
20050716,001859,1482644,34.758871,-121.547648,14.585,33.516,0.722,0.925
20050716,001928,1482674,34.759490,-121.546160,14.602,33.515,0.667,0.828
20050716,001959,1482705,34.760131,-121.544668,14.597,33.529,0.651,0.800
20050716,002028,1482733,34.760785,-121.543180,14.585,33.537,0.574,0.673
20050716,002059,1482765,34.761428,-121.541676,14.567,33.546,0.613,0.739
20050716,002128,1482794,34.762080,-121.540188,14.584,33.514,0.607,0.729
20050716,002158,1482824,34.762713,-121.538693,14.612,33.510,0.667,0.829
20050716,002229,1482854,34.763358,-121.537185,14.598,33.536,0.695,0.870
20050716,002259,1482885,34.764013,-121.535685,14.572,33.550,0.717,0.901
20050716,002328,1482913,34.764658,-121.534161,14.528,33.567,0.717,0.890
20050716,002358,1482943,34.765320,-121.532670,14.482,33.591,0.749,0.946
20050716,002429,1482975,34.765983,-121.531161,14.507,33.527,0.755,0.961
20050716,002459,1483004,34.766645,-121.529640,14.515,33.528,0.793,1.037
20050716,002529,1483035,34.767313,-121.528121,14.515,33.532,0.804,1.056
20050716,002559,1483065,34.767958,-121.526613,14.496,33.546,0.815,1.071
20050716,002628,1483093,34.768610,-121.525105,14.452,33.563,0.809,1.060
20050716,002659,1483125,34.769261,-121.523603,14.440,33.548,0.809,1.056
20050716,002729,1483154,34.769918,-121.522035,14.466,33.519,0.804,1.043
20050716,002759,1483184,34.770538,-121.520558,14.485,33.515,0.798,1.027
20050716,002829,1483215,34.771170,-121.519050,14.514,33.500,0.804,1.035
20050716,002858,1483243,34.771830,-121.517526,14.505,33.529,0.820,1.069
20050716,002929,1483275,34.772493,-121.516020,14.501,33.529,0.836,1.104
20050716,002959,1483305,34.773173,-121.514455,14.507,33.530,0.896,1.224
20050716,003029,1483334,34.773818,-121.512943,14.489,33.546,0.891,1.215
20050716,003059,1483364,34.774478,-121.511410,14.468,33.553,0.923,1.278
20050716,003129,1483395,34.775163,-121.509893,14.447,33.560,0.955,1.341
20050716,003200,1483425,34.775840,-121.508303,14.421,33.568,0.972,1.364
20050716,003230,1483456,34.776510,-121.506801,14.378,33.586,1.015,1.448
20050716,003300,1483486,34.777175,-121.505293,14.337,33.593,1.080,1.600
20050716,003330,1483516,34.777835,-121.503756,14.326,33.580,1.139,1.739
20050716,003400,1483546,34.778501,-121.502221,14.324,33.580,1.182,1.823
20050716,003430,1483575,34.779161,-121.500665,14.320,33.580,1.289,2.054
20050716,003500,1483605,34.779816,-121.499108,14.339,33.576,1.273,2.019
20050716,003530,1483636,34.780493,-121.497565,14.337,33.593,1.380,2.261
20050716,003600,1483666,34.781165,-121.496005,14.347,33.592,1.572,2.705
20050716,003630,1483696,34.781831,-121.494455,14.351,33.605,1.886,3.488
20050716,003700,1483726,34.782500,-121.492906,14.315,33.641,1.859,3.410
20050716,003730,1483755,34.783180,-121.491375,14.237,33.681,1.854,3.401
20050716,003800,1483786,34.783823,-121.489850,14.164,33.688,1.992,3.787
20050716,003830,1483816,34.784473,-121.488340,14.088,33.696,2.234,4.476
20050716,003900,1483846,34.785101,-121.486868,14.055,33.679,2.377,4.875
20050716,003930,1483876,34.785763,-121.485296,14.024,33.678,2.885,6.483
20050716,004000,1483905,34.786408,-121.483800,14.002,33.671,2.937,6.677
20050716,004030,1483935,34.787060,-121.482291,13.961,33.684,3.167,7.418
20050716,004100,1483966,34.787693,-121.480766,13.936,33.680,3.365,8.026
20050716,004130,1483996,34.788360,-121.479251,13.950,33.655,3.625,8.884
20050716,004200,1484026,34.789026,-121.477741,13.973,33.647,3.661,8.985
20050716,004230,1484056,34.789690,-121.476221,13.986,33.655,3.594,8.743
20050716,004300,1484085,34.790366,-121.474708,13.932,33.701,3.936,10.043
20050716,004330,1484115,34.791030,-121.473188,13.871,33.726,4.107,10.674
20050716,004400,1484146,34.791725,-121.471688,13.843,33.721,4.469,12.050
20050716,004430,1484176,34.792393,-121.470180,13.814,33.721,4.727,13.060
20050716,004500,1484206,34.793083,-121.468683,13.813,33.706,4.809,13.362
20050716,004531,1484237,34.793786,-121.467125,13.822,33.694,4.593,12.469
20050716,004600,1484265,34.794445,-121.465671,13.887,33.660,4.345,11.485
20050716,004630,1484296,34.795126,-121.464151,13.928,33.671,3.864,9.675
20050716,004701,1484326,34.795860,-121.462596,13.952,33.695,3.104,7.002
20050716,004731,1484356,34.796555,-121.461078,13.984,33.702,2.639,5.509
20050716,004801,1484387,34.797231,-121.459618,14.008,33.711,2.503,5.093
20050716,004831,1484417,34.797948,-121.458110,14.025,33.717,2.371,4.708
20050716,004901,1484447,34.798681,-121.456560,14.023,33.734,2.197,4.214
20050716,004931,1484477,34.799368,-121.455046,14.031,33.733,2.297,4.487
20050716,005001,1484506,34.800058,-121.453521,14.033,33.739,2.334,4.582
20050716,005031,1484536,34.800736,-121.452061,14.016,33.749,2.245,4.329
20050716,005101,1484567,34.801440,-121.450496,14.002,33.754,2.176,4.135
20050716,005131,1484597,34.802128,-121.448978,14.000,33.746,2.234,4.295
20050716,005201,1484627,34.802785,-121.447436,13.991,33.751,2.197,4.197
20050716,005231,1484656,34.803420,-121.445900,13.982,33.745,2.261,4.385
20050716,005301,1484686,34.804053,-121.444341,13.951,33.764,2.250,4.365
20050716,005331,1484717,34.804725,-121.442800,13.912,33.771,2.261,4.400
20050716,005401,1484747,34.805353,-121.441238,13.909,33.749,2.276,4.449
20050716,005432,1484777,34.806016,-121.439695,13.909,33.743,2.382,4.737
20050716,005502,1484808,34.806661,-121.438153,13.909,33.740,2.560,5.253
20050716,005531,1484836,34.807313,-121.436615,13.908,33.741,2.529,5.161
20050716,005601,1484866,34.807983,-121.435091,13.885,33.752,2.455,4.953
20050716,005631,1484897,34.808603,-121.433588,13.844,33.771,2.408,4.829
20050716,005701,1484927,34.809281,-121.432013,13.819,33.759,2.623,5.485
20050716,005731,1484957,34.809901,-121.430526,13.817,33.744,2.592,5.411
20050716,005802,1484988,34.810590,-121.428948,13.801,33.747,2.744,5.902
20050716,005831,1485016,34.811230,-121.427410,13.793,33.742,2.702,5.784
20050716,005901,1485047,34.811885,-121.425883,13.796,33.734,2.702,5.785
20050716,005931,1485077,34.812541,-121.424355,13.793,33.738,2.671,5.672
20050716,010001,1485107,34.813166,-121.422936,13.798,33.730,2.566,5.359
20050716,010032,1485138,34.813845,-121.421366,13.833,33.710,2.581,5.444
20050716,010101,1485166,34.814493,-121.419828,13.896,33.685,2.576,5.454
20050716,010131,1485196,34.815156,-121.418330,13.931,33.702,2.524,5.299
20050716,010201,1485227,34.815810,-121.416818,13.927,33.726,2.434,5.050
20050716,010231,1485257,34.816456,-121.415293,13.925,33.733,2.434,5.085
20050716,010301,1485287,34.817105,-121.413753,13.925,33.738,2.276,4.633
20050716,010332,1485318,34.817760,-121.412225,13.915,33.741,2.408,5.028
20050716,010401,1485346,34.818451,-121.410707,14.000,33.685,2.203,4.426
20050716,010431,1485376,34.819103,-121.409187,14.081,33.675,2.081,4.094
20050716,010501,1485407,34.819745,-121.407660,14.098,33.714,1.907,3.589
20050716,010531,1485437,34.820385,-121.406128,14.088,33.738,1.886,3.501
20050716,010601,1485467,34.820998,-121.404562,14.079,33.743,1.817,3.301
20050716,010631,1485496,34.821640,-121.403002,14.076,33.746,1.769,3.176
20050716,010701,1485526,34.822243,-121.401440,14.076,33.741,1.838,3.365
20050716,010731,1485557,34.822880,-121.399862,14.087,33.733,1.939,3.641
20050716,010801,1485587,34.823515,-121.398290,14.106,33.722,1.997,3.794
20050716,010831,1485617,34.824133,-121.396733,14.131,33.716,1.917,3.568
20050716,010901,1485647,34.824760,-121.395170,14.142,33.728,1.960,3.678
20050716,010931,1485676,34.825393,-121.393618,14.135,33.743,1.727,3.082
20050716,011002,1485708,34.826005,-121.392068,14.154,33.728,1.769,3.216
20050716,011031,1485737,34.826648,-121.390542,14.142,33.746,1.833,3.372
20050716,011101,1485767,34.827281,-121.388985,14.121,33.742,1.859,3.433
20050716,011131,1485797,34.827891,-121.387422,14.099,33.733,1.886,3.507
20050716,011201,1485827,34.828528,-121.385860,14.071,33.731,1.827,3.358
20050716,011232,1485858,34.829153,-121.384310,14.041,33.725,1.806,3.312
20050716,011301,1485886,34.829791,-121.382752,14.075,33.686,1.801,3.306
20050716,011331,1485917,34.830430,-121.381193,14.060,33.698,1.870,3.496
20050716,011402,1485947,34.831073,-121.379643,14.051,33.691,1.854,3.467
20050716,011431,1485977,34.831660,-121.378055,14.061,33.673,1.870,3.509
20050716,011501,1486006,34.832248,-121.376458,14.042,33.688,1.896,3.596
20050716,011531,1486036,34.832848,-121.374875,13.974,33.703,1.986,3.860
20050716,011601,1486067,34.833408,-121.373305,13.930,33.693,1.997,3.871
20050716,011631,1486097,34.833986,-121.371730,13.902,33.675,2.066,4.039
20050716,011701,1486127,34.834561,-121.370155,13.883,33.666,1.965,3.738
20050716,011731,1486157,34.835128,-121.368593,13.876,33.652,1.912,3.586
20050716,011801,1486186,34.835685,-121.367018,13.875,33.648,2.002,3.836
20050716,011832,1486218,34.836260,-121.365440,13.877,33.643,1.997,3.822
20050716,011901,1486247,34.836813,-121.363862,13.891,33.636,2.245,4.526
20050716,011931,1486277,34.837395,-121.362302,13.914,33.632,2.055,3.980
20050716,012001,1486307,34.837948,-121.360718,13.917,33.647,2.066,4.004
20050716,012031,1486337,34.838528,-121.359145,13.909,33.659,2.071,3.993
20050716,012101,1486366,34.839103,-121.357583,13.903,33.654,2.071,3.967
20050716,012132,1486398,34.839663,-121.355988,13.915,33.645,2.044,3.871
20050716,012201,1486427,34.840231,-121.354387,13.902,33.654,2.039,3.844
20050716,012231,1486457,34.840788,-121.352798,13.890,33.653,2.139,4.106
20050716,012301,1486487,34.841366,-121.351203,13.895,33.642,2.092,3.955
20050716,012331,1486516,34.841931,-121.349600,13.974,33.585,2.171,4.149
20050716,012401,1486546,34.842510,-121.348008,14.119,33.532,2.123,4.001
20050716,012431,1486577,34.843100,-121.346427,14.188,33.590,2.324,4.561
20050716,012501,1486607,34.843680,-121.344867,14.213,33.631,2.313,4.538
20050716,012532,1486637,34.844288,-121.343235,14.189,33.677,2.255,4.348
20050716,012602,1486668,34.844878,-121.341652,14.134,33.701,2.218,4.216
20050716,012632,1486698,34.845455,-121.340062,14.090,33.701,2.060,3.776
20050716,012702,1486728,34.846053,-121.338467,14.102,33.664,2.213,4.177
20050716,012732,1486757,34.846648,-121.336858,14.143,33.648,2.171,4.033
20050716,012802,1486787,34.847238,-121.335242,14.172,33.643,2.229,4.156
20050716,012833,1486819,34.847843,-121.333618,14.187,33.658,2.218,4.108
20050716,012902,1486848,34.848433,-121.332000,14.181,33.672,2.213,4.081
20050716,012932,1486878,34.849040,-121.330383,14.160,33.685,2.229,4.109
20050716,013002,1486908,34.849628,-121.328753,14.132,33.695,2.340,4.396
20050716,013032,1486937,34.850181,-121.327108,14.124,33.682,2.455,4.704
20050716,013102,1486967,34.850693,-121.325493,14.100,33.689,2.497,4.803
20050716,013132,1486998,34.851243,-121.323767,14.116,33.665,2.555,4.945
20050716,013202,1487028,34.851773,-121.322098,14.162,33.643,2.566,4.959
20050716,013232,1487058,34.852290,-121.320428,14.175,33.661,2.392,4.468
20050716,013302,1487088,34.852821,-121.318757,14.163,33.679,2.634,5.127
20050716,013332,1487117,34.853351,-121.317107,14.038,33.768,2.571,4.943
20050716,013403,1487149,34.853863,-121.315462,13.952,33.731,3.052,6.344
20050716,013432,1487178,34.854356,-121.313855,14.004,33.658,3.178,6.720
20050716,013503,1487208,34.854880,-121.312133,14.057,33.638,3.005,6.192
20050716,013532,1487238,34.855393,-121.310487,14.068,33.649,2.880,5.819
20050716,013602,1487267,34.855923,-121.308832,14.066,33.664,2.733,5.397
20050716,013632,1487297,34.856455,-121.307175,14.073,33.661,2.770,5.503
20050716,013702,1487328,34.856983,-121.305525,14.087,33.657,2.838,5.695
20050716,013732,1487358,34.857483,-121.303860,14.092,33.668,3.068,6.374
20050716,013802,1487388,34.857943,-121.302237,14.124,33.645,2.906,5.881
20050716,013832,1487418,34.858466,-121.300580,14.163,33.644,2.917,5.904
20050716,013902,1487447,34.858993,-121.298932,14.183,33.654,3.078,6.379
20050716,013932,1487477,34.859513,-121.297298,14.188,33.669,3.225,6.814
20050716,014002,1487508,34.860035,-121.295663,14.209,33.661,3.511,7.705
20050716,014032,1487538,34.860581,-121.294028,14.231,33.657,3.506,7.681
20050716,014103,1487569,34.861116,-121.292408,14.246,33.666,3.563,7.862
20050716,014132,1487598,34.861633,-121.290798,14.248,33.675,3.594,7.968
20050716,014202,1487627,34.862236,-121.289225,14.257,33.670,3.776,8.567
20050716,014232,1487658,34.862671,-121.287630,14.275,33.666,3.583,7.929
20050716,014302,1487688,34.863155,-121.286018,14.313,33.654,3.589,7.955
20050716,014332,1487718,34.863623,-121.284437,14.344,33.662,3.350,7.195
20050716,014402,1487748,34.864151,-121.282753,14.357,33.672,3.271,6.957
20050716,014432,1487777,34.864653,-121.281112,14.346,33.693,3.063,6.316
20050716,014502,1487807,34.865148,-121.279477,14.345,33.688,3.162,6.607
20050716,014533,1487839,34.865668,-121.277857,14.378,33.670,3.256,6.886
20050716,014602,1487868,34.866150,-121.276227,14.390,33.681,3.344,7.154
20050716,014633,1487898,34.866646,-121.274603,14.378,33.696,3.781,8.555
20050716,014702,1487928,34.867133,-121.273000,14.357,33.705,3.874,8.856
20050716,014732,1487957,34.867646,-121.271382,14.345,33.707,4.180,9.890
20050716,014802,1487987,34.868140,-121.269783,14.360,33.691,4.500,11.013
20050716,014832,1488018,34.868653,-121.268193,14.360,33.697,4.422,10.722
20050716,014902,1488048,34.869150,-121.266570,14.353,33.699,4.649,11.531
20050716,014932,1488078,34.869656,-121.264965,14.343,33.703,4.711,11.745
20050716,015002,1488107,34.870145,-121.263370,14.312,33.714,4.840,12.210
20050716,015032,1488137,34.870615,-121.261788,14.281,33.716,5.025,12.905
20050716,015104,1488170,34.871115,-121.260127,14.263,33.711,5.400,14.353
20050716,015133,1488198,34.871611,-121.258512,14.261,33.694,5.385,14.294
20050716,015204,1488230,34.872050,-121.256878,14.210,33.729,5.349,14.154
20050716,015233,1488259,34.872511,-121.255240,14.158,33.733,5.989,16.743
20050716,015304,1488289,34.873066,-121.253627,14.147,33.710,6.475,18.806
20050716,015333,1488319,34.873568,-121.251990,14.144,33.701,6.408,18.525
20050716,015403,1488349,34.874060,-121.250353,14.131,33.702,6.337,18.221
20050716,015433,1488378,34.874570,-121.248747,14.137,33.693,6.577,19.256
20050716,015504,1488410,34.875081,-121.247160,14.129,33.696,6.521,19.022
20050716,015533,1488439,34.875593,-121.245570,14.129,33.695,6.765,20.101
20050716,015603,1488469,34.876103,-121.243955,14.105,33.708,6.923,20.805
20050716,015633,1488499,34.876631,-121.242352,14.100,33.697,6.653,19.599
20050716,015703,1488528,34.877078,-121.240733,14.104,33.702,6.959,20.951
20050716,015734,1488560,34.877546,-121.239133,14.102,33.696,7.091,21.547
20050716,015803,1488589,34.878005,-121.237528,14.106,33.693,7.249,22.263
20050716,015833,1488619,34.878485,-121.235932,14.126,33.682,7.366,22.793
20050716,015903,1488649,34.878963,-121.234330,14.154,33.674,7.056,21.368
20050716,015933,1488679,34.879430,-121.232708,14.165,33.685,6.719,19.862
20050716,020003,1488708,34.879895,-121.231028,14.143,33.704,6.719,19.853
20050716,020033,1488738,34.880385,-121.229410,14.117,33.713,6.857,20.461
20050716,020103,1488769,34.880841,-121.227772,14.117,33.701,6.592,19.287
20050716,020133,1488799,34.881326,-121.226182,14.126,33.692,6.832,20.332
20050716,020203,1488829,34.881791,-121.224583,14.106,33.711,6.740,19.916
20050716,020233,1488858,34.882256,-121.222960,14.069,33.723,6.725,19.851
20050716,020303,1488888,34.882751,-121.221355,14.056,33.712,6.648,19.524
20050716,020334,1488920,34.883221,-121.219747,14.060,33.702,6.526,18.993
20050716,020403,1488949,34.883710,-121.218132,14.046,33.712,6.735,19.906
20050716,020433,1488979,34.884185,-121.216515,14.000,33.733,7.000,21.082
20050716,020503,1489009,34.884678,-121.214883,13.958,33.736,7.432,23.053
20050716,020534,1489040,34.885130,-121.213245,13.928,33.730,7.447,23.129
20050716,020604,1489070,34.885636,-121.211643,13.884,33.737,7.574,23.727
20050716,020633,1489099,34.886081,-121.210020,13.828,33.749,7.274,22.349
20050716,020703,1489129,34.886408,-121.208418,13.760,33.755,7.417,23.019
20050716,020734,1489159,34.886701,-121.206863,13.685,33.768,7.407,22.978
20050716,020803,1489189,34.886965,-121.205325,13.654,33.730,6.954,20.918
20050716,020833,1489218,34.887136,-121.203763,13.660,33.709,7.203,22.046
20050716,020903,1489248,34.887311,-121.202252,13.657,33.703,7.010,21.160
20050716,020933,1489279,34.887518,-121.200645,13.628,33.716,6.893,20.623
20050716,021003,1489309,34.887703,-121.199055,13.610,33.712,6.556,19.130
20050716,021033,1489339,34.887868,-121.197693,13.591,33.713,6.500,18.881
20050716,021103,1489368,34.888103,-121.196882,13.585,33.702,6.781,20.101
20050716,021134,1489400,34.888401,-121.196478,13.567,33.708,6.327,18.121
20050716,021203,1489429,34.888660,-121.196288,13.565,33.693,6.413,18.489
20050716,021233,1489459,34.888908,-121.196188,13.579,33.687,6.306,18.024
20050716,021303,1489489,34.889148,-121.196193,13.575,33.694,6.173,17.459
20050716,021333,1489519,34.889371,-121.196247,13.573,33.684,6.388,18.373
20050716,021403,1489548,34.889563,-121.196368,13.577,33.668,6.327,18.107
20050716,021433,1489578,34.889755,-121.196512,13.570,33.669,6.148,17.354
20050716,021503,1489609,34.889931,-121.196647,13.564,33.675,5.754,15.732
20050716,021533,1489639,34.890120,-121.196802,13.556,33.684,5.831,16.049
20050716,021603,1489669,34.890320,-121.196950,13.547,33.686,5.943,16.514
20050716,021634,1489700,34.890511,-121.197110,13.535,33.686,6.066,17.021
20050716,021704,1489730,34.890683,-121.197265,13.526,33.692,6.173,17.475
20050716,021733,1489758,34.890883,-121.197442,13.517,33.694,6.311,18.067
20050716,021804,1489789,34.891066,-121.197628,13.506,33.695,6.352,18.253
20050716,021833,1489819,34.891270,-121.197790,13.492,33.698,6.194,17.586
20050716,021903,1489849,34.891456,-121.197978,13.492,33.690,6.117,17.263
20050716,021933,1489878,34.891645,-121.198168,13.492,33.689,6.321,18.140
20050716,022003,1489908,34.891825,-121.198373,13.504,33.679,6.388,18.422
20050716,022034,1489940,34.892023,-121.198557,13.504,33.688,6.454,18.707
20050716,022104,1489969,34.892223,-121.198733,13.504,33.688,6.444,18.670
20050716,022133,1489999,34.892428,-121.198907,13.507,33.687,6.500,18.908
20050716,022203,1490029,34.892606,-121.199093,13.518,33.683,6.500,18.907
20050716,022233,1490058,34.892781,-121.199288,13.526,33.683,6.158,17.445
20050716,022303,1490088,34.892971,-121.199465,13.530,33.689,6.214,17.692
20050716,022333,1490119,34.893161,-121.199642,13.522,33.695,6.521,18.995
20050716,022403,1490149,34.893360,-121.199793,13.523,33.693,6.367,18.307
20050716,022433,1490179,34.893531,-121.199947,13.520,33.692,6.490,18.812
20050716,022503,1490208,34.893723,-121.200083,13.513,33.697,6.485,18.777
20050716,022533,1490238,34.893898,-121.200255,13.503,33.694,6.521,18.924
20050716,022603,1490269,34.894081,-121.200402,13.504,33.694,6.745,19.903
20050716,022633,1490299,34.894261,-121.200538,13.499,33.696,6.928,20.709
20050716,022703,1490329,34.894405,-121.200700,13.499,33.690,6.877,20.488
20050716,022733,1490359,34.894525,-121.200800,13.501,33.690,6.821,20.243
20050716,022803,1490388,34.894621,-121.200883,13.500,33.691,6.816,20.209
20050716,022833,1490418,34.894681,-121.200925,13.493,33.691,6.648,19.464
20050716,022903,1490449,34.894728,-121.200930,13.495,33.687,6.923,20.671
20050716,022933,1490479,34.894748,-121.200957,13.498,33.683,6.928,20.690
20050716,023003,1490509,34.894760,-121.200960,13.499,33.688,6.714,19.740
20050716,023033,1490539,34.894770,-121.200980,13.494,33.687,6.684,19.601
20050716,023103,1490568,34.894766,-121.201018,13.496,33.685,6.949,20.774
20050716,023134,1490600,34.894738,-121.201113,13.496,33.688,6.638,19.400
20050716,023203,1490629,34.894725,-121.201232,13.498,33.687,6.556,19.035
20050716,023234,1490659,34.894730,-121.201385,13.500,33.689,6.989,20.936
20050716,023303,1490689,34.894750,-121.201583,13.505,33.645,6.597,19.202
20050716,023334,1490720,34.894843,-121.201755,13.503,33.652,6.638,19.373
20050716,023404,1490750,34.894981,-121.201907,13.501,33.665,6.653,19.435
20050716,023434,1490780,34.895143,-121.202035,13.496,33.681,6.694,19.604
20050716,023504,1490809,34.895323,-121.202188,13.490,33.681,6.755,19.867
20050716,023534,1490839,34.895503,-121.202328,13.490,33.681,6.674,19.501
20050716,023604,1490870,34.895680,-121.202505,13.485,33.684,6.546,18.942
20050716,023634,1490900,34.895891,-121.202677,13.481,33.688,6.490,18.699
20050716,023704,1490930,34.896095,-121.202857,13.474,33.690,6.327,18.000
20050716,023733,1490959,34.896303,-121.203028,13.464,33.696,6.347,18.086
20050716,023804,1490989,34.896511,-121.203200,13.459,33.695,6.388,18.256
20050716,023834,1491020,34.896646,-121.203287,13.460,33.689,6.367,18.160
20050716,023904,1491050,34.896753,-121.203343,13.458,33.692,6.107,17.059
20050716,023934,1491080,34.896833,-121.203408,13.463,33.683,6.240,17.611
20050716,024004,1491110,34.896895,-121.203453,13.468,33.686,6.250,17.657
20050716,024034,1491139,34.896971,-121.203482,13.469,33.688,6.178,17.356
20050716,024104,1491169,34.897021,-121.203547,13.468,33.687,6.209,17.482
20050716,024134,1491200,34.897113,-121.203605,13.465,33.695,5.928,16.318
20050716,024204,1491230,34.897208,-121.203655,13.458,33.695,5.959,16.440
20050716,024234,1491260,34.897315,-121.203690,13.449,33.698,6.240,17.598
20050716,024304,1491290,34.897438,-121.203740,13.452,33.691,5.907,16.219
20050716,024334,1491319,34.897563,-121.203803,13.459,33.682,6.189,17.375